Welcome to the New NWS' Forecast!
Most changes are behind the scenes, but click here for differences you might notice.

Regional Weather Roundup (RWR)

Issued by Kansas City/Pleasant Hill, MO (EAX)

                            
761 
ASUS43 KEAX 201210
RWREAX

WEATHER ROUNDUP FOR EASTERN KANSAS AND NORTHWEST MISSOURI
NATIONAL WEATHER SERVICE KANSAS CITY/PLEASANT HILL MO
700 AM CDT MON AUG 20 2018

KSZ040-057-103>105-MOZ028-029-037-043-201300-
...KANSAS CITY METROPOLITAN AREA...
  
CITY           SKY/WX    TMP DP  RH WIND       PRES   REMARKS
K.C. INTL      LGT RAIN  67  65  93 W12       29.73R                  
6HR MIN TEMP:  67; 6HR MAX TEMP:  71; 6HR PCP:  0.01;                

K.C. DOWNTOWN  CLOUDY    69  64  84 SW12      29.74R                  
6HR MIN TEMP:  69; 6HR MAX TEMP:  74; 6HR PCP:  0.09;                

LEES SUMMIT    CLOUDY    67  67 100 SW12      29.76R                  
6HR MIN TEMP:  66; 6HR MAX TEMP:  71; 6HR PCP:  0.05;                

OLATHE - IXD   CLOUDY    68  66  93 SW14      29.78R                  
6HR MIN TEMP:  67; 6HR MAX TEMP:  68; 6HR PCP: TRACE;                

OLATHE - OJC   CLOUDY    66  66 100 SW8       29.77R                  
6HR MIN TEMP:  65; 6HR MAX TEMP:  69; 6HR PCP: TRACE;                

LAWRENCE       CLOUDY    68  66  93 W12       29.76S                  

$$
 
MOZ001>008-011>017-020>025-030>033-038>040-044>046-053-054-201300-
...NORTHERN AND CENTRAL MISSOURI...
  
CITY           SKY/WX    TMP DP  RH WIND       PRES   REMARKS
ST. JOSEPH     CLOUDY    67  67 100 W13       29.69S                  
6HR MIN TEMP:  67; 6HR MAX TEMP:  68;                                

MOSBY          CLOUDY    68  64  88 SW7       29.72R                  
WARRENSBURG    CLOUDY    66  63  88 SW8       29.77R                  
WHITEMAN AFB   CLOUDY    67  66  96 W14       29.72S                  
6HR MIN TEMP:  67; 6HR MAX TEMP:  71; 6HR PCP: TRACE;                

CLINTON        CLOUDY    68  66  94 SW9       29.79S                  
SEDALIA        CLOUDY    69  68  96 SW12      29.78R                  
6HR MIN TEMP:  68; 6HR MAX TEMP:  72; 6HR PCP:  0.02;                

WARSAW         NOT AVBL                                               
CHILLICOTHE      N/A     69  68  96 SW7       29.69R                  
6HR MIN TEMP:  69; 6HR MAX TEMP:  74; 6HR PCP:  0.23;                

KIRKSVILLE     CLOUDY    69  69 100 S12       29.70S FOG              
6HR MIN TEMP:  69; 6HR MAX TEMP:  73; 6HR PCP: TRACE;                


$$

MOZ041-047>049-056>058-063>065-088>090-097-201300-
...EASTERN AND SOUTHERN MISSOURI...
  
CITY           SKY/WX    TMP DP  RH WIND       PRES   REMARKS
ST. LOUIS INTL CLOUDY    74  72  93 SW9       29.79R                  
6HR MIN TEMP:  74; 6HR MAX TEMP:  78; 6HR PCP:  0.29;                

SPIRIT OF STL  PTCLDY    74  71  91 SW9       29.77R                  
COLUMBIA       CLOUDY    69  66  90 SW12      29.76R                  
JEFFERSON CITY CLOUDY    71  66  84 SW10      29.77R                  
ROLLA          CLOUDY    68  65  90 SW14      29.82R                  
SPRINGFIELD    CLEAR     66  64  93 SW6       29.85R                  
BRANSON        MOCLDY    68  68 100 SW6       29.88S                  
JOPLIN         MOCLDY    68  65  90 W7        29.86R                  
WEST PLAINS    CLOUDY    72  69  90 SW8       29.89R                  

$$

IAZ060-094-KSZ022-034>040-054-083-096-NEZ052-066-093-201300- 
...KANSAS...SOUTHEAST NEBRASKA AND IOWA...
  
CITY           SKY/WX    TMP DP  RH WIND       PRES   REMARKS
TOPEKA         CLOUDY    68  66  93 W13G21    29.77R                  
6HR MIN TEMP:  67; 6HR MAX TEMP:  68; 6HR PCP: TRACE;                

MANHATTAN      CLOUDY    68  65  90 W10G17    29.83R                  
EMPORIA        CLOUDY    66  63  90 W8        29.84S                  
CHANUTE        CLEAR     65  65 100 W6        29.85R                  
WICHITA        CLOUDY    66  63  90 NW15      29.90R                  
OMAHA          HVY RAIN  66  64  93 N26G39    29.69R VSB 1            
LINCOLN        HVY RAIN  66  64  93 N16G25    29.79R FOG              
FALLS CITY     CLOUDY    67  64  90 W18       29.69S                  
LAMONI         CLOUDY    67  66  97 S15       29.63R FOG              
DES MOINES     LGT RAIN  70  69  97 E12G25    29.63F                  

$$